This is the latest recevied weather packets stored in our database for station/object KC3ULW-13. If no packets are shown the sender has not sent any weather packets the latest 10 day(s).
| Time | Temp. | Humidity | Pressure | Rain* | Wind** | Luminosity | Snow |
|---|---|---|---|---|---|---|---|
| 1777564316 | 7.78° C | 78% | 1015.9 hPa | 0 mm | - | 92 W/m² | - |
| 1777564012 | 7.78° C | 79% | 1015.9 hPa | 0 mm | - | 146 W/m² | - |
| 1777563708 | 7.78° C | 80% | 1015.8 hPa | 0 mm | - | 234 W/m² | - |
| 1777563404 | 7.78° C | 80% | 1015.5 hPa | 0 mm | - | 62 W/m² | - |
| 1777563099 | 7.78° C | 81% | 1015.6 hPa | 0 mm | - | 122 W/m² | - |
| 1777562795 | 7.78° C | 82% | 1015.7 hPa | 0 mm | - | 117 W/m² | - |
| 1777562493 | 7.78° C | 83% | 1015.6 hPa | 0 mm | - | 188 W/m² | - |
| 1777562190 | 7.22° C | 84% | 1015.6 hPa | 0 mm | - | 117 W/m² | - |
| 1777561888 | 7.22° C | 84% | 1015.7 hPa | 0 mm | - | 61 W/m² | - |
| 1777561585 | 7.78° C | 83% | 1015.4 hPa | 0 mm | - | 54 W/m² | - |
| 1777561280 | 7.78° C | 83% | 1015.5 hPa | 0 mm | - | 61 W/m² | - |
| 1777560980 | 7.78° C | 84% | 1015.4 hPa | 0 mm | - | 140 W/m² | - |
| 1777560676 | 7.22° C | 85% | 1015 hPa | 0 mm | - | 70 W/m² | - |
| 1777560374 | 7.22° C | 84% | 1015.1 hPa | 0 mm | - | 51 W/m² | - |
| 1777560072 | 7.22° C | 84% | 1015 hPa | 0 mm | - | 74 W/m² | - |
| 1777559767 | 7.78° C | 84% | 1014.9 hPa | 0 mm | - | 92 W/m² | - |
| 1777559464 | 7.78° C | 84% | 1014.6 hPa | 0 mm | - | 52 W/m² | - |
| 1777559162 | 7.78° C | 84% | 1014.8 hPa | 0 mm | - | 85 W/m² | - |
| 1777558861 | 7.78° C | 85% | 1014.5 hPa | 0 mm | - | 107 W/m² | - |
| 1777558557 | 8.33° C | 85% | 1014.5 hPa | 0 mm | - | 131 W/m² | - |
| 1777558254 | 8.33° C | 85% | 1014.5 hPa | 0 mm | - | 114 W/m² | - |
| 1777557950 | 8.33° C | 85% | 1014.3 hPa | 0 mm | - | 144 W/m² | - |
| 1777557647 | 7.78° C | 85% | 1014.3 hPa | 0 mm | - | 154 W/m² | - |
| 1777557343 | 8.33° C | 87% | 1014.1 hPa | 0 mm | - | 204 W/m² | - |
| 1777557039 | 7.78° C | 89% | 1014.2 hPa | 0 mm | - | 204 W/m² | - |
* Rain latest hour (hover to see other rain measurements)
** Current wind speed in m/s (hover to see current wind gust speed)